[[{"header":{"parameterUnit":"m.s-1","parameterCategory":1,"la1":30.2991,"la2":30.254,"lo1":-89.0895,"lo2":-89.0444,"dy":0.0017,"dx":0.0017,"nx":28,"ny":28,"refTime":"2024-08-10T21:00:00:Z","depth":0,"parameterNumber":2,"parameterNumberName":"U-component_of_WINDS"},"data":[0,0,0,0,0,0,0,0,0,0,0,0,0,0,0,0,0,0,0,0,0,0,0,0,0,0,0,0,0,0,0,0,0,0,0,0,0,0,0,0,0,0,0,0,0,0,0,0,0,0,0,0,0,0,0,0,0,0,1.9638,1.9639,0,1.9702,1.9702,1.9703,1.9695,1.9694,1.9693,1.9692,1.9762,1.9765,1.9768,0,0,0,0,0,0,0,0,0,0,0,0,0,1.9516,1.9519,1.9638,1.9639,1.964,1.9701,1.9702,1.9703,1.9695,1.9694,1.9692,1.9691,1.9761,1.9765,1.9768,0,0,0,0,0,0,0,0,0,0,0,0,0,1.9574,1.9519,1.9638,1.9643,1.9644,1.9701,1.9702,1.9703,1.9695,1.9694,1.9692,1.969,1.976,1.9764,1.9768,1.9827,0,0,1.9782,1.9783,0,0,0,0,0,0,0,0,1.957,1.9578,1.9642,1.9643,1.9644,1.9688,1.9685,1.9745,1.9696,1.9676,1.9692,1.969,1.9739,1.9745,1.9761,1.983,1.9833,1.9782,1.9785,1.9786,1.9788,0,0,0,0,0,0,0,1.9566,1.9575,1.9664,1.9643,1.9644,1.9644,1.965,1.9696,1.9716,1.9678,1.9677,1.9684,1.974,1.9757,1.9762,1.9834,1.9782,1.9786,1.9788,1.979,1.9956,1.9957,0,0,0,0,0,0,1.956,1.9572,1.9662,1.9665,1.9602,1.9647,1.9655,1.9676,1.9715,1.972,1.9686,1.9684,1.975,1.9757,1.9765,1.9836,1.9786,1.979,1.9793,1.9954,1.9956,1.9958,0,0,0,0,0,0,1.9558,1.9568,1.9659,1.9619,1.963,1.9651,1.9675,1.9678,1.9695,1.9721,1.9725,1.9699,1.9749,1.9759,1.9811,1.9839,1.9792,1.9796,1.9952,1.9955,1.9957,1.9979,0,0,0,0,0,0,1.9554,1.9567,1.9588,1.9619,1.9632,1.9703,1.9677,1.968,1.9702,1.97,1.9735,1.9739,1.9749,1.9805,1.9815,1.9844,1.98,1.9949,1.9953,1.9956,1.9976,1.9983,1.9988,0,0,0,0,0,1.955,1.9593,1.9589,1.96,1.9659,1.9704,1.9712,1.972,1.9704,1.9726,1.9743,1.9738,1.9834,1.981,1.9822,1.9852,1.9948,1.9952,1.9956,1.9974,1.9981,1.9988,0,0,0,0,0,0,1.9567,1.9597,1.9594,1.9648,1.9673,1.9703,1.9731,1.9728,1.976,1.9757,1.9768,1.9776,1.9829,1.9846,1.9819,1.9911,1.9889,1.9895,1.9898,1.9906,1.9911,1.9907,1.9803,0,0,0,0,0,1.9577,1.9609,1.9635,1.968,1.9693,1.971,1.973,1.9734,1.9762,1.9773,1.9794,1.9823,1.9859,1.9883,1.9918,1.9978,1.9987,2.0005,2.0011,2.0015,2.0022,2.0056,2.0065,1.9972,1.9971,1.9971,0,0,1.9598,1.9618,1.9639,1.9684,1.9704,1.974,1.9719,1.9757,1.9784,1.9779,1.983,1.9846,1.9879,1.9936,1.9962,1.9952,2.0049,2.0021,2.0024,2.0028,2.0061,2.007,2.0078,1.9974,1.9974,1.9973,0,0,1.9654,1.9672,1.9713,1.9733,1.9763,1.9774,1.9784,1.9814,1.9824,1.9875,1.9872,1.9905,1.9968,1.9992,2.0012,2.0078,2.0075,2.0089,2.012,2.0153,2.0161,2.0167,2.0192,2.0201,2.0095,2.0095,2.0095,0,1.9677,1.9729,1.9734,1.9773,1.9794,1.9789,1.9831,1.9851,1.9892,1.9908,1.9895,1.9973,1.9995,2.0058,2.0074,2.009,2.0103,2.0086,2.0159,2.0165,2.0172,2.0196,2.0205,2.0097,2.0096,2.0096,2.0096,0,1.9756,1.9792,1.9821,1.9859,1.9883,1.9923,1.9937,1.9961,1.9963,1.9976,2.0028,2.0054,2.0095,2.011,2.0113,2.0174,2.0166,2.0156,2.0134,2.0182,2.0205,2.0214,2.0099,2.0098,2.0098,2.0097,0,0,1.9826,1.9866,1.9876,1.9894,1.9927,1.9956,1.9997,2.0035,2.0056,2.0085,2.0121,2.0173,2.0164,2.0187,2.0193,2.0222,2.0274,2.0209,2.021,2.0221,2.0345,2.0353,2.0363,2.0272,2.0274,2.0275,2.0342,0,1.9886,1.9956,1.9962,2.0026,2.006,2.0057,2.0092,2.0118,2.0131,2.0164,2.0179,2.0217,2.0201,2.0215,2.0244,2.0262,2.0299,2.0257,2.0308,2.0309,2.03,2.0374,2.0383,2.0445,2.0351,2.0352,2.0353,0,1.9966,1.9996,2.0062,2.0091,2.0106,2.0138,2.0174,2.0204,2.0234,2.0241,2.0267,2.0269,2.0313,2.0288,2.035,2.0321,2.0342,2.0354,2.0357,2.0363,2.0335,2.0384,2.0465,2.0474,2.0367,2.0366,2.0365,0,2.0012,2.0068,2.0115,2.013,2.0165,2.0188,2.0204,2.0232,2.0254,2.0286,2.0301,2.0339,2.0359,2.0389,2.0402,2.0382,2.0464,2.044,2.0473,2.0473,2.0491,2.049,2.0578,2.0503,2.0503,2.0502,2.0502,0,2.0079,2.0121,2.0136,2.0166,2.0212,2.022,2.0267,2.0282,2.0307,2.034,2.034,2.0372,2.0386,2.042,2.0431,2.0481,2.0491,2.05,2.0502,2.05,2.0499,2.0515,2.0511,2.0505,2.0504,2.0504,2.0503,0,2.0138,2.015,2.0202,2.023,2.0238,2.0272,2.0297,2.0326,2.0339,2.0382,2.0392,2.0413,2.0454,2.0469,2.0519,2.0526,2.0585,2.0583,2.0574,2.0575,2.0608,2.0605,2.071,2.0725,2.0639,2.064,2.0641,0,2.0181,2.0213,2.0244,2.0266,2.0282,2.0317,2.034,2.0349,2.0373,2.0409,2.0435,2.0475,2.0507,2.0573,2.0594,2.0633,2.0633,2.0667,2.0639,2.0637,2.0635,2.0633,2.0637,2.0673,2.0674,2.0674,2.0675,0,2.0256,2.0261,2.0292,2.0327,2.0353,2.0381,2.0409,2.0427,2.0441,2.0468,2.0509,2.0534,2.0585,2.0625,2.0665,2.0684,2.0683,2.0683,2.0693,2.0692,2.0686,2.0691,2.059,2.0681,2.0681,2.068,2.068,2.068,2.0309,2.0337,2.0364,2.04,2.0421,2.0446,2.0475,2.0491,2.0525,2.0566,2.0569,2.0614,2.0644,2.0697,2.0717,2.0753,2.0744,2.0759,2.0762,2.0766,2.0769,2.0679,2.0761,2.076,2.076,2.076,2.076,0,2.0386,2.0402,2.0435,2.0472,2.0501,2.0495,2.0525,2.055,2.0588,2.0615,2.0647,2.0695,2.0734,2.0758,2.0798,2.0823,2.0823,2.0833,2.0832,2.0836,2.0774,2.0762,2.0832,2.0832,2.0832,2.0832,2.0832,2.0832,2.0429,2.0476,2.0484,2.0542,2.0559,2.0601,2.0619,2.0643,2.0665,2.0717,2.075,2.0764,2.079,2.0832,2.0869,2.0875,2.089,2.0901,2.0907,2.0848,2.0841,2.0834,2.0822,2.0904,2.0904,2.0966,2.0967,2.0967]},{"header":{"parameterUnit":"m.s-1","parameterCategory":1,"la1":30.2991,"la2":30.254,"lo1":-89.0895,"lo2":-89.0444,"dy":0.0017,"dx":0.0017,"nx":28,"ny":28,"refTime":"2024-08-10T21:00:00:Z","depth":0,"parameterNumber":3,"parameterNumberName":"V-component_of_WINDS"},"data":[0,0,0,0,0,0,0,0,0,0,0,0,0,0,0,0,0,0,0,0,0,0,0,0,0,0,0,0,0,0,0,0,0,0,0,0,0,0,0,0,0,0,0,0,0,0,0,0,0,0,0,0,0,0,0,0,0,0,1.9444,1.9444,0,1.944,1.944,1.944,1.9432,1.9432,1.9432,1.9431,1.9424,1.9424,1.9424,0,0,0,0,0,0,0,0,0,0,0,0,0,1.9439,1.9439,1.9444,1.9444,1.9444,1.944,1.944,1.944,1.9432,1.9432,1.9432,1.9431,1.9424,1.9424,1.9424,0,0,0,0,0,0,0,0,0,0,0,0,0,1.9438,1.9439,1.9444,1.9439,1.9439,1.944,1.944,1.944,1.9432,1.9432,1.9431,1.9431,1.9424,1.9424,1.9424,1.9427,0,0,1.9423,1.9423,0,0,0,0,0,0,0,0,1.9439,1.9439,1.944,1.944,1.9439,1.9436,1.9435,1.9435,1.9432,1.9434,1.9431,1.9431,1.9428,1.9427,1.9427,1.9427,1.9426,1.9423,1.9423,1.9423,1.9423,0,0,0,0,0,0,0,1.9439,1.9439,1.9442,1.944,1.944,1.9436,1.9435,1.9435,1.9432,1.9434,1.9434,1.9433,1.9427,1.9427,1.9427,1.9426,1.9423,1.9423,1.9423,1.9423,1.9424,1.9424,0,0,0,0,0,0,1.944,1.9439,1.9442,1.9442,1.9438,1.9436,1.9436,1.9437,1.9432,1.9431,1.9434,1.9433,1.9427,1.9427,1.9426,1.9427,1.9423,1.9423,1.9423,1.9424,1.9424,1.9424,0,0,0,0,0,0,1.944,1.944,1.9442,1.944,1.944,1.9436,1.9438,1.9437,1.9437,1.9432,1.9431,1.9434,1.9427,1.9427,1.9426,1.9427,1.9423,1.9423,1.9424,1.9424,1.9424,1.9431,0,0,0,0,0,0,1.944,1.944,1.9443,1.944,1.944,1.9444,1.9438,1.9437,1.9437,1.9436,1.9432,1.9431,1.9427,1.9426,1.9426,1.9427,1.9423,1.9424,1.9424,1.9424,1.9431,1.9432,1.9432,0,0,0,0,0,1.944,1.9446,1.9444,1.9444,1.9444,1.9444,1.9444,1.944,1.9437,1.9439,1.9435,1.9431,1.9427,1.9426,1.9426,1.9427,1.9423,1.9424,1.9424,1.9431,1.9432,1.9432,0,0,0,0,0,0,1.9449,1.9446,1.9443,1.9449,1.9447,1.9443,1.9446,1.9442,1.944,1.9439,1.9433,1.9432,1.9432,1.9429,1.9429,1.9428,1.9424,1.9424,1.943,1.943,1.9431,1.9431,1.9423,0,0,0,0,0,1.9452,1.9454,1.945,1.9455,1.9454,1.945,1.945,1.9447,1.9444,1.9443,1.9439,1.9436,1.9433,1.9432,1.9429,1.943,1.9427,1.943,1.9431,1.9431,1.9431,1.9428,1.9428,1.9425,1.9425,1.9425,0,0,1.9457,1.9456,1.9457,1.9457,1.9455,1.9455,1.9449,1.9451,1.9449,1.9443,1.9442,1.9439,1.9434,1.9433,1.9433,1.9431,1.9431,1.9432,1.9432,1.9432,1.9428,1.9429,1.9429,1.9425,1.9425,1.9425,0,0,1.9467,1.9468,1.947,1.9468,1.9465,1.9462,1.9462,1.9458,1.9456,1.9455,1.9449,1.9446,1.9443,1.9439,1.9436,1.944,1.9435,1.9439,1.9443,1.944,1.944,1.944,1.9439,1.9439,1.9439,1.9439,1.9439,0,1.9475,1.9476,1.9472,1.9472,1.9471,1.9465,1.9466,1.9463,1.9459,1.9457,1.9456,1.9449,1.9445,1.9442,1.9443,1.9442,1.944,1.944,1.944,1.9441,1.9441,1.9439,1.9439,1.944,1.944,1.944,1.944,0,1.9483,1.9484,1.9486,1.9482,1.9481,1.9482,1.9475,1.9474,1.947,1.9466,1.9462,1.9458,1.9453,1.9451,1.9448,1.9446,1.9445,1.9442,1.9438,1.9441,1.944,1.944,1.944,1.944,1.944,1.944,0,0,1.9501,1.9493,1.9494,1.949,1.9485,1.9484,1.9483,1.9478,1.9476,1.9472,1.9469,1.9465,1.9461,1.9458,1.9453,1.945,1.945,1.9447,1.9446,1.9446,1.9444,1.9446,1.9446,1.9447,1.9447,1.9447,1.9444,0,1.9508,1.9508,1.9502,1.9502,1.95,1.9492,1.9491,1.9486,1.9481,1.9477,1.9471,1.9467,1.9463,1.9461,1.9458,1.9451,1.9449,1.9451,1.9441,1.9441,1.9442,1.9446,1.9448,1.9446,1.9444,1.9444,1.9444,0,1.9518,1.9514,1.9514,1.9505,1.9504,1.9503,1.9497,1.9494,1.9487,1.9483,1.9478,1.9472,1.9467,1.9464,1.9455,1.9456,1.9452,1.9447,1.9447,1.9445,1.9442,1.9442,1.9446,1.9445,1.9443,1.9443,1.9443,0,1.9528,1.9523,1.9521,1.9519,1.951,1.9508,1.9504,1.9497,1.9493,1.9486,1.9483,1.9476,1.9472,1.9465,1.9456,1.9456,1.9448,1.9445,1.9442,1.9442,1.9441,1.9441,1.9442,1.944,1.944,1.944,1.944,0,1.9536,1.9536,1.9525,1.9524,1.9522,1.9514,1.9511,1.9506,1.9499,1.9494,1.9487,1.9483,1.9472,1.9465,1.9458,1.945,1.9449,1.9444,1.9442,1.9444,1.9444,1.9441,1.944,1.944,1.944,1.944,1.944,0,1.9548,1.9541,1.9538,1.9528,1.9526,1.9524,1.9515,1.9512,1.9506,1.95,1.9498,1.9487,1.9479,1.9469,1.9458,1.9453,1.9445,1.9443,1.9448,1.9446,1.9444,1.9443,1.9442,1.944,1.944,1.944,1.944,0,1.9553,1.9552,1.9542,1.9539,1.9535,1.953,1.9526,1.9517,1.9512,1.9502,1.9499,1.949,1.9483,1.9469,1.9459,1.9449,1.9446,1.9446,1.9444,1.9445,1.9443,1.9443,1.9442,1.9446,1.9446,1.9446,1.9446,0,1.9562,1.9558,1.9553,1.9546,1.9541,1.9535,1.9528,1.9526,1.9515,1.951,1.9501,1.9495,1.9482,1.9472,1.9461,1.9454,1.9447,1.9447,1.9445,1.9447,1.9449,1.9446,1.9447,1.9447,1.9447,1.9447,1.9447,1.9447,1.957,1.9567,1.9559,1.9552,1.9546,1.9539,1.9535,1.9527,1.9521,1.951,1.9505,1.9495,1.9484,1.9468,1.9461,1.9452,1.945,1.9448,1.9448,1.9447,1.9447,1.9451,1.945,1.945,1.945,1.945,1.9449,0,1.9577,1.957,1.9565,1.9555,1.9549,1.9544,1.9535,1.953,1.9522,1.9513,1.9505,1.9493,1.9483,1.9471,1.9459,1.9454,1.945,1.9451,1.9451,1.9448,1.945,1.9452,1.9454,1.9454,1.9454,1.9454,1.9454,1.9454,1.958,1.9575,1.9569,1.9559,1.9552,1.9544,1.9539,1.9531,1.9523,1.9511,1.9502,1.9495,1.9483,1.947,1.9459,1.9456,1.9451,1.9452,1.9447,1.9449,1.9449,1.9449,1.945,1.9451,1.9451,1.9446,1.9446,1.9446]}]]